Location: Poughquag
(41.6090°N, 73.6820°W)
Time: 03:30:00
(UTC-04:00)

Transit 4A - Pass Details

Date: 29 May 2020
Orbit: 866 x 978 km, 66.8° (Epoch: 06 July)

Event Time Altitude Azimuth Distance (km) Brightness Sun altitude
Rises 10:13:17 0° 337° (NNW) 3,551 10.7 51.3°
Reaches altitude 10° 10:16:18 10° 351° (N) 2,626 10.2 51.8°
Maximum altitude 10:21:12 24° 45° (NE) 1,826 10.0 52.7°
Drops below altitude 10° 10:26:10 10° 98° (E) 2,678 11.1 53.5°
Sets 10:29:16 0° 111° (ESE) 3,637 11.6 54.1°
